Simultaneous Nadir Overpasses (SNOs) Predictions

Prediction of SNOs between GOES-16 and METOP-B Satellite Orbit:

Table of predicted SNOs for the next 14.0 days since TLE Epoch: 5/12/2017
Index Date Time (GOES-16) GOES-16 Lat,Lon METOP-B Lat,Lon Distance(km) Time Diff (sec)
1 05/13/2017 15:38:51 -0.00, -89.53 0.61, -92.15 298.50 80
2 05/14/2017 15:20:52 0.00, -89.55 -0.52, -87.16 271.96 80
3 05/16/2017 03:39:52 -0.00, -89.54 -0.47, -91.76 252.29 80
4 05/17/2017 03:16:32 -0.01, -89.55 0.60, -86.76 317.97 80
5 05/18/2017 15:35:23 0.01, -89.59 0.42, -91.32 197.61 80
6 05/19/2017 15:17:23 0.01, -89.61 -0.71, -86.33 373.12 80
7 05/21/2017 03:36:23 -0.01, -89.61 -0.33, -90.92 150.33 80
8 05/22/2017 03:13:03 -0.01, -89.62 0.80, -85.93 420.20 80
9 05/23/2017 15:31:54 0.01, -89.66 0.22, -90.49 95.34 80
10 05/24/2017 15:13:55 0.01, -89.68 -0.91, -85.50 475.53 80
11 05/26/2017 03:32:54 -0.01, -89.68 -0.12, -90.10 47.51 80




NCC Satellite Simultaneous Nadir Overpasses (SNOs) Prediction Service
